Other Public Products
Issued by NWS Charleston, SC

Current Version | Previous Version | Graphics & Text | Print | Product List | Glossary On
Versions: 1 2 3 4 5 6 7 8 9 10 11 12 13 14 15 16 17 18 19 20 21 22 23 24 25 26 27 28 29 30 31 32 33 34 35 36 37 38 39 40 41 42 43 44 45 46 47 48 49 50
755 FPUS82 KCHS 261212 OPUCHS TEST...KCHS/KSAV Gateway Observations...TEST National Weather Service Charleston SC 800 AM EDT THU APR 26 2018 NOTE: "fair" indicates few or no clouds below 12,000 feet with no significant weather and/or obstructions to visibility. SCZ050-WAZ558-NCZ071-TXZ119-213-PAZ071-DCZ001-FLZ074-172-MI076- NYZ176-178-MAZ016-IL014-TNZ027-NJZ106-GAZ044-MD014-261300- ...Gateway Observations for Charleston International... CITY SKY/WX TMP DP RH WIND PRES REMARKS Chas Airport FAIR 60 57 89 S5 29.87R 6HR MIN TEMP: 56; 6HR MAX TEMP: 63; Seattle PTCLDY 56 40 55 NE12 30.03F 6HR MIN TEMP: 54; 6HR MAX TEMP: 62; Charlotte PTSUNNY 60 52 74 NE6 29.88R 6HR MIN TEMP: 57; 6HR MAX TEMP: 60; Dallas DFW CLEAR 48 44 86 W9 30.02R 6HR MIN TEMP: 47; 6HR MAX TEMP: 50; Dallas Love CLEAR 48 44 86 W6 30.05R 6HR MIN TEMP: 46; 6HR MAX TEMP: 52; Philladelphia FAIR 52 38 58 NW15 29.78R 6HR MIN TEMP: 51; 6HR MAX TEMP: 61; Wash National PTSUNNY 54 37 52 NW10G24 29.86R 6HR MIN TEMP: 50; 6HR MAX TEMP: 59; Baltimore FAIR 51 39 63 NW15G26 29.82R 6HR MIN TEMP: 45; 6HR MAX TEMP: 56; Miami FAIR 68 61 78 NW7 29.95R 6HR MIN TEMP: 66; 6HR MAX TEMP: 68; Detroit FAIR 43 38 82 W5 29.96R HAZE 6HR MIN TEMP: 39; 6HR MAX TEMP: 43; Newark FAIR 58 49 72 W17 29.69R 6HR MIN TEMP: 55; 6HR MAX TEMP: 58; 6HR PCP: TRACE; Laguardia FAIR 58 47 66 W21 29.68R 6HR MIN TEMP: 54; 6HR MAX TEMP: 59; 6HR PCP: TRACE; J F K FAIR 57 49 74 W14 29.69R 6HR MIN TEMP: 51; 6HR MAX TEMP: 58; 6HR PCP: 0.04; Boston Logan LGT RAIN 52 52 100 SE5 29.58S VSB 1 6HR MIN TEMP: 50; 6HR MAX TEMP: 55; 6HR PCP: 0.21; Ft. Lauderdale FAIR 68 63 84 NW6 29.94R 6HR MIN TEMP: 66; 6HR MAX TEMP: 70; Chicago O`Hare FAIR 38 31 76 CALM 29.96R 6HR MIN TEMP: 36; 6HR MAX TEMP: 40; Chicago Midway FAIR 40 32 73 NW3 29.96S 6HR MIN TEMP: 36; 6HR MAX TEMP: 40; Houston Bush FAIR 54 49 83 N7 30.03R 6HR MIN TEMP: 54; 6HR MAX TEMP: 63; Houston Hobby FAIR 56 48 74 N10 30.02R 6HR MIN TEMP: 56; 6HR MAX TEMP: 66; Nashville LGT RAIN 56 53 90 S3 29.89R FOG 6HR MIN TEMP: 56; 6HR MAX TEMP: 61; 6HR PCP: 0.01; Atlanta PTSUNNY 53 50 89 CALM 29.87R 6HR MIN TEMP: 51; 6HR MAX TEMP: 54; $$ GAZ044-118-TXZ119-213-NCZ071-DCZ001-MDZ014-506-PAZ021-071-NJZ106- NYZ176-178-MAZ106-OHZ011-021-055-MIZ076-KYZ091-ILZ014-INZ047- MNZ060-ONZ431-261300- ...Gateway Observations for Savannah International... CITY SKY/WX TMP DP RH WIND PRES REMARKS Savannah Arpt PTSUNNY 59 55 87 W3 29.88R 6HR MIN TEMP: 55; 6HR MAX TEMP: 59; Atlanta PTSUNNY 53 50 89 CALM 29.87R 6HR MIN TEMP: 51; 6HR MAX TEMP: 54; Charlotte PTSUNNY 60 52 74 NE6 29.88R 6HR MIN TEMP: 57; 6HR MAX TEMP: 60; Dallas DFW CLEAR 48 44 86 W9 30.02R 6HR MIN TEMP: 47; 6HR MAX TEMP: 50; Houston Bush FAIR 54 49 83 N7 30.03R 6HR MIN TEMP: 54; 6HR MAX TEMP: 63; Wash National PTSUNNY 54 37 52 NW10G24 29.86R 6HR MIN TEMP: 50; 6HR MAX TEMP: 59; Wash Dulles PTSUNNY 51 40 65 NW12 29.87R 6HR MIN TEMP: 44; 6HR MAX TEMP: 55; Baltimore FAIR 51 39 63 NW15G26 29.82R 6HR MIN TEMP: 45; 6HR MAX TEMP: 56; Philadelphia FAIR 52 38 58 NW15 29.78R 6HR MIN TEMP: 51; 6HR MAX TEMP: 61; Newark FAIR 58 49 72 W17 29.69R 6HR MIN TEMP: 55; 6HR MAX TEMP: 58; 6HR PCP: TRACE; Laguardia FAIR 58 47 66 W21 29.68R 6HR MIN TEMP: 54; 6HR MAX TEMP: 59; 6HR PCP: TRACE; J F K FAIR 57 49 74 W14 29.69R 6HR MIN TEMP: 51; 6HR MAX TEMP: 58; 6HR PCP: 0.04; Boston LGT RAIN 52 52 100 SE5 29.58S VSB 1 6HR MIN TEMP: 50; 6HR MAX TEMP: 55; 6HR PCP: 0.21; Pittsburg FAIR 40 34 79 W5 29.92S WCI 37 6HR MIN TEMP: 37; 6HR MAX TEMP: 41; Akron FAIR 38 34 85 SW3 29.94R 6HR MIN TEMP: 34; 6HR MAX TEMP: 40; Cleveland FAIR 37 35 92 SW3 29.97R 6HR MIN TEMP: 34; 6HR MAX TEMP: 39; Cincinnati FAIR 43 34 70 N7 29.89S 6HR MIN TEMP: 41; 6HR MAX TEMP: 49; Columbus FAIR 42 42 100 E8 29.93R Detroit FAIR 43 38 82 W5 29.96R HAZE 6HR MIN TEMP: 39; 6HR MAX TEMP: 43; Chicago O`Hare FAIR 38 31 76 CALM 29.96R 6HR MIN TEMP: 36; 6HR MAX TEMP: 40; Minneapolis MOCLDY 46 35 65 S7 29.87F 6HR MIN TEMP: 45; 6HR MAX TEMP: 48; Indianapolis FAIR 39 31 72 N6 29.92S WCI 35 6HR MIN TEMP: 38; 6HR MAX TEMP: 43; Toronto Canada PTSUNNY 41 34 75 NW16 29.82R $$

USA.gov is the U.S. government's official web portal to all federal, state and local government web resources and services.